Location: Unspecified
(49.2170°N, 0.0000°E)
Time: 10:14:00
(UTC+00:00)

Vanguard 2 Rocket - Pass Details

Date: 24 January 2021
Orbit: 554 x 3326 km, 32.9° (Epoch: 25 February)

Event Time Altitude Azimuth Distance (km) Brightness Sun altitude
Rises 17:52:57 0° 253° (WSW) 5,475 13.1 -11.2°
Reaches altitude 10° 17:58:04 10° 242° (WSW) 3,923 11.5 -12.0°
Maximum altitude 18:04:52 22° 197° (SSW) 2,356 9.4 -13.1°
Drops below altitude 10° 18:09:36 10° 147° (SSE) 2,614 9.1 -13.9°
Enters shadow 18:11:51 - 133° (SE) 3,172 9.4 -14.2°
